STARLINK-1891 (47174 NORAD) Tracking and Keplerian Element Data

This shows tracking and keplerian element data for the satellite.

Feedback or suggestion? Click here.




ElementValue
Catalog47174
NameSTARLINK-1891
Epoch Orbit177
Epoch Day15.91667824
Epoch Year2021
RAAN99.4465
Inclination53.0555
Eccentricity0.0003922
Argument of Perigee292.1341
Mean Anonmoly35.7045
Mean Motion15.55398945
Decay Rate-0.01063769
L11 47174U 20088BE 21015.91667824 -.01063769 00000-0 -16880-1 0 9991
L22 47174 53.0555 99.4465 0003922 292.1341 35.7045 15.55398945 1776

Live tracking and technical data element details for STARLINK-1891 (NORAD 47174). STARLINK-1891 can be tracked NOW for your location showing map with azimuth and elevation plus other details from your city location.

Track the satellite on the map from your city or location and see movement details for azimuth, elevation, latitude, longitude, range, height, and movement on the map or in text.







IsCatalogInMostPopularTable: catalog: 47174, numindb: 23
Update: records affected: 1



GetName: 47174 STARLINK-1891

Hit Count: updated at: Sun, 17 Jan 2021 09:10:19 GMT